{"data":{"norad_id":60377,"epoch":"2026-05-24T21:15:40.451040Z","epoch_age_seconds":84822,"freshness":"FRESH","line1":"1 60377U 24138Y   26144.88588485  .00000510  00000+0  29352-4 0  9992","line2":"2 60377  53.1611 315.6705 0001208  80.1419 279.9718 15.30192609102296","mean_motion":15.30192609,"eccentricity":0.0001208,"inclination_deg":53.1611,"raan_deg":315.6705,"arg_perigee_deg":80.1419,"mean_anomaly_deg":279.9718,"bstar":2.9352e-5,"rev_number":10229,"period_min":94.1058002457,"perigee_km":474.40925010608,"apogee_km":476.06502529775,"semimajor_km":6853.3741377019,"source":"CELESTRAK","updated_at":"2026-05-25T13:38:19.242745Z"}}